Location: ????????
(48.4751°N, 37.6926°E)
Time: 13:38:40
(UTC+00:00)

USA 267 - Pass Details

Date: 20 January 2021
Orbit: 1102 x 1106 km, 123.0° (Epoch: 22 February)

Event Time Altitude Azimuth Distance (km) Brightness Sun altitude
Exits shadow 16:16:52 30° 113° (ESE) 1,870 4.0 -20.8°
Maximum altitude 16:17:52 31° 129° (SE) 1,824 4.0 -20.9°
Drops below altitude 10° 16:23:31 10° 189° (S) 2,954 5.7 -21.9°
Sets 16:26:20 0° 200° (SSW) 3,908 6.5 -22.3°
